FIT����@(���z���E����)�̎��сi���v�l���܂ށj,���z��(MWh),����(MWh),���v(MWh)
2017/1/1 0:00,0,2,2
2017/1/1 0:30,0,1.7,1.7
2017/1/1 1:00,0,1.5,1.5
2017/1/1 1:30,0,1.1,1.1
2017/1/1 2:00,0,1.3,1.3
2017/1/1 2:30,0,1.7,1.7
2017/1/1 3:00,0,1.7,1.7
2017/1/1 3:30,0,1.8,1.8
2017/1/1 4:00,0,1.5,1.5
2017/1/1 4:30,0,1.5,1.5
2017/1/1 5:00,0,1.3,1.3
2017/1/1 5:30,0,1.3,1.3
2017/1/1 6:00,0,1.3,1.3
2017/1/1 6:30,0,1.5,1.5
2017/1/1 7:00,0,1.3,1.3
2017/1/1 7:30,6.2,1.1,7.3
2017/1/1 8:00,19.1,1.3,20.3
2017/1/1 8:30,31.8,1.2,33.1
2017/1/1 9:00,45.9,1.2,47.2
2017/1/1 9:30,58.1,1.3,59.4
2017/1/1 10:00,68.8,1.2,69.9
2017/1/1 10:30,77.8,1.1,78.9
2017/1/1 11:00,84.8,1.1,85.9
2017/1/1 11:30,90.1,1,91.1
2017/1/1 12:00,92.4,1,93.4
2017/1/1 12:30,90.7,0.9,91.5
2017/1/1 13:00,90.9,0.9,91.8
2017/1/1 13:30,86.8,0.9,87.7
2017/1/1 14:00,80.6,0.8,81.4
2017/1/1 14:30,72.3,0.8,73.1
2017/1/1 15:00,62.2,0.8,63
2017/1/1 15:30,50.6,0.9,51.5
2017/1/1 16:00,36.8,0.9,37.7
2017/1/1 16:30,24.1,0.9,25
2017/1/1 17:00,10.5,0.8,11.3
2017/1/1 17:30,2.7,0.8,3.5
2017/1/1 18:00,0,0.8,0.8
2017/1/1 18:30,0,0.6,0.6
2017/1/1 19:00,0,0.5,0.5
2017/1/1 19:30,0,0.5,0.5
2017/1/1 20:00,0,0.5,0.5
2017/1/1 20:30,0,0.5,0.5
2017/1/1 21:00,0,0.4,0.4
2017/1/1 21:30,0,0.4,0.4
2017/1/1 22:00,0,0.4,0.4
2017/1/1 22:30,0,0.4,0.4
2017/1/1 23:00,0,0.3,0.3
2017/1/1 23:30,0,0.3,0.3
2017/1/2 0:00,0,0.3,0.3
2017/1/2 0:30,0,0.3,0.3
2017/1/2 1:00,0,0.3,0.3
2017/1/2 1:30,0,0.2,0.2
2017/1/2 2:00,0,0.3,0.3
2017/1/2 2:30,0,0,0
2017/1/2 3:00,0,0,0
2017/1/2 3:30,0,0,0
2017/1/2 4:00,0,0,0
2017/1/2 4:30,0,0,0
2017/1/2 5:00,0,0,0
2017/1/2 5:30,0,0,0
2017/1/2 6:00,0,0,0
2017/1/2 6:30,0,0.1,0.1
2017/1/2 7:00,0,0.1,0.1
2017/1/2 7:30,6.1,0.2,6.3
2017/1/2 8:00,18.3,0.4,18.7
2017/1/2 8:30,27.1,0.6,27.6
2017/1/2 9:00,39.4,0.7,40.1
2017/1/2 9:30,45.2,0.7,45.9
2017/1/2 10:00,60.1,0.7,60.8
2017/1/2 10:30,76.6,0.7,77.3
2017/1/2 11:00,84.1,0.7,84.7
2017/1/2 11:30,88.6,0.5,89.1
2017/1/2 12:00,91.1,0.4,91.5
2017/1/2 12:30,91.5,0.4,91.8
2017/1/2 13:00,89.6,0.4,90
2017/1/2 13:30,85.4,0.3,85.8
2017/1/2 14:00,79.2,0.3,79.5
2017/1/2 14:30,71,0.2,71.2
2017/1/2 15:00,61.1,0.1,61.2
2017/1/2 15:30,49.6,0,49.7
2017/1/2 16:00,30.7,0,30.7
2017/1/2 16:30,13.2,0,13.2
2017/1/2 17:00,10,0,10
2017/1/2 17:30,2.8,0,2.8
2017/1/2 18:00,0,0,0
2017/1/2 18:30,0,0,0
2017/1/2 19:00,0,0,0
2017/1/2 19:30,0,0,0
2017/1/2 20:00,0,0.4,0.4
2017/1/2 20:30,0,0.6,0.6
2017/1/2 21:00,0,0.6,0.6
2017/1/2 21:30,0,0.3,0.3
2017/1/2 22:00,0,0.2,0.2
2017/1/2 22:30,0,0.3,0.3
2017/1/2 23:00,0,0.1,0.1
2017/1/2 23:30,0,0,0
2017/1/3 0:00,0,0,0
2017/1/3 0:30,0,0,0
2017/1/3 1:00,0,0,0
2017/1/3 1:30,0,0,0
2017/1/3 2:00,0,0,0
2017/1/3 2:30,0,0,0
2017/1/3 3:00,0,0,0
2017/1/3 3:30,0,0.1,0.1
2017/1/3 4:00,0,0.2,0.2
2017/1/3 4:30,0,0.1,0.1
2017/1/3 5:00,0,0.1,0.1
2017/1/3 5:30,0,0.1,0.1
2017/1/3 6:00,0,0.1,0.1
2017/1/3 6:30,0,0,0
2017/1/3 7:00,0,0,0
2017/1/3 7:30,5.9,0.1,6
2017/1/3 8:00,13.8,0.1,13.9
2017/1/3 8:30,21.5,0.4,21.9
2017/1/3 9:00,11.7,0.4,12.1
2017/1/3 9:30,18.5,0.3,18.7
2017/1/3 10:00,31.4,0.4,31.8
2017/1/3 10:30,34.2,0.6,34.8
2017/1/3 11:00,37.1,1.2,38.2
2017/1/3 11:30,33.7,1,34.7
2017/1/3 12:00,50.5,0.6,51.1
2017/1/3 12:30,37,0.7,37.6
2017/1/3 13:00,30.3,0.5,30.8
2017/1/3 13:30,24.4,0.4,24.9
2017/1/3 14:00,18.9,0.5,19.4
2017/1/3 14:30,21.2,0.5,21.6
2017/1/3 15:00,30,0.5,30.5
2017/1/3 15:30,14.8,0.6,15.4
2017/1/3 16:00,13.4,0.5,13.9
2017/1/3 16:30,14,0.5,14.5
2017/1/3 17:00,10.1,0.6,10.7
2017/1/3 17:30,3,0.6,3.6
2017/1/3 18:00,0,0.5,0.5
2017/1/3 18:30,0,0.4,0.4
2017/1/3 19:00,0,0.4,0.4
2017/1/3 19:30,0,0.4,0.4
2017/1/3 20:00,0,0.4,0.4
2017/1/3 20:30,0,0.3,0.3
2017/1/3 21:00,0,0.2,0.2
2017/1/3 21:30,0,0.3,0.3
2017/1/3 22:00,0,0.3,0.3
2017/1/3 22:30,0,0.4,0.4
2017/1/3 23:00,0,0.4,0.4
2017/1/3 23:30,0,0.5,0.5
2017/1/4 0:00,0,0.4,0.4
2017/1/4 0:30,0,0.3,0.3
2017/1/4 1:00,0,0.4,0.4
2017/1/4 1:30,0,0.3,0.3
2017/1/4 2:00,0,0.2,0.2
2017/1/4 2:30,0,0.2,0.2
2017/1/4 3:00,0,0.4,0.4
2017/1/4 3:30,0,0.3,0.3
2017/1/4 4:00,0,0.2,0.2
2017/1/4 4:30,0,0.2,0.2
2017/1/4 5:00,0,0.2,0.2
2017/1/4 5:30,0,0.2,0.2
2017/1/4 6:00,0,0.3,0.3
2017/1/4 6:30,0,0.3,0.3
2017/1/4 7:00,0,0.4,0.4
2017/1/4 7:30,5.6,0.4,6
2017/1/4 8:00,15,0.4,15.4
2017/1/4 8:30,24,0.4,24.4
2017/1/4 9:00,27.1,0.2,27.4
2017/1/4 9:30,40.1,0.2,40.2
2017/1/4 10:00,58.9,0.2,59.1
2017/1/4 10:30,60.3,0.2,60.5
2017/1/4 11:00,57,0.1,57.2
2017/1/4 11:30,36.6,0,36.6
2017/1/4 12:00,49.5,0,49.5
2017/1/4 12:30,51,0,51
2017/1/4 13:00,37.6,0,37.6
2017/1/4 13:30,30.8,0,30.8
2017/1/4 14:00,14,0,14
2017/1/4 14:30,19.2,0,19.2
2017/1/4 15:00,15.8,0,15.8
2017/1/4 15:30,11.8,0,11.8
2017/1/4 16:00,9.5,0,9.5
2017/1/4 16:30,11.8,0,11.8
2017/1/4 17:00,8.1,0,8.1
2017/1/4 17:30,3.2,0,3.2
2017/1/4 18:00,0,0,0
2017/1/4 18:30,0,0.1,0.1
2017/1/4 19:00,0,0.1,0.1
2017/1/4 19:30,0,0.1,0.1
2017/1/4 20:00,0,0.1,0.1
2017/1/4 20:30,0,0.1,0.1
2017/1/4 21:00,0,0.1,0.1
2017/1/4 21:30,0,0.1,0.1
2017/1/4 22:00,0,0.1,0.1
2017/1/4 22:30,0,0.2,0.2
2017/1/4 23:00,0,0.1,0.1
2017/1/4 23:30,0,0.1,0.1
2017/1/5 0:00,0,0.2,0.2
2017/1/5 0:30,0,0.1,0.1
2017/1/5 1:00,0,0.2,0.2
2017/1/5 1:30,0,0.3,0.3
2017/1/5 2:00,0,0.2,0.2
2017/1/5 2:30,0,0.1,0.1
2017/1/5 3:00,0,0.1,0.1
2017/1/5 3:30,0,0,0
2017/1/5 4:00,0,0,0
2017/1/5 4:30,0,0,0
2017/1/5 5:00,0,0,0
2017/1/5 5:30,0,0.1,0.1
2017/1/5 6:00,0,0.1,0.1
2017/1/5 6:30,0,0.1,0.1
2017/1/5 7:00,0,0.1,0.1
2017/1/5 7:30,5.2,0,5.2
2017/1/5 8:00,13.3,0.1,13.3
2017/1/5 8:30,13.8,0.1,13.9
2017/1/5 9:00,10.8,0.1,10.9
2017/1/5 9:30,11.7,0,11.7
2017/1/5 10:00,12.5,0,12.6
2017/1/5 10:30,25.3,0.1,25.4
2017/1/5 11:00,31.6,0.1,31.7
2017/1/5 11:30,22.9,0.2,23.1
2017/1/5 12:00,35.5,0.2,35.7
2017/1/5 12:30,21.6,0.1,21.7
2017/1/5 13:00,25.2,0.2,25.3
2017/1/5 13:30,21.7,0.2,21.9
2017/1/5 14:00,17.1,0.1,17.2
2017/1/5 14:30,14.6,0.1,14.7
2017/1/5 15:00,11.8,0.1,11.9
2017/1/5 15:30,13.9,0.1,14
2017/1/5 16:00,8.8,0.1,8.9
2017/1/5 16:30,9.1,0.1,9.3
2017/1/5 17:00,7.7,0.1,7.8
2017/1/5 17:30,1.9,0.2,2.1
2017/1/5 18:00,0,0.3,0.3
2017/1/5 18:30,0,0.2,0.2
2017/1/5 19:00,0,0.2,0.2
2017/1/5 19:30,0,0.4,0.4
2017/1/5 20:00,0,0.8,0.8
2017/1/5 20:30,0,0.8,0.8
2017/1/5 21:00,0,0.7,0.7
2017/1/5 21:30,0,0.8,0.8
2017/1/5 22:00,0,0.7,0.7
2017/1/5 22:30,0,0.7,0.7
2017/1/5 23:00,0,0.9,0.9
2017/1/5 23:30,0,0.8,0.8
2017/1/6 0:00,0,0.7,0.7
2017/1/6 0:30,0,0.8,0.8
2017/1/6 1:00,0,1,1
2017/1/6 1:30,0,0.9,0.9
2017/1/6 2:00,0,0.9,0.9
2017/1/6 2:30,0,0.9,0.9
2017/1/6 3:00,0,0.9,0.9
2017/1/6 3:30,0,0.9,0.9
2017/1/6 4:00,0,0.8,0.8
2017/1/6 4:30,0,0.7,0.7
2017/1/6 5:00,0,0.7,0.7
2017/1/6 5:30,0,0.8,0.8
2017/1/6 6:00,0,0.8,0.8
2017/1/6 6:30,0,0.7,0.7
2017/1/6 7:00,0,0.8,0.8
2017/1/6 7:30,5.3,1,6.3
2017/1/6 8:00,14.3,0.7,15
2017/1/6 8:30,22.7,0.8,23.5
2017/1/6 9:00,27.6,0.5,28.1
2017/1/6 9:30,25.8,0.5,26.3
2017/1/6 10:00,30,0.5,30.5
2017/1/6 10:30,32.1,0.4,32.5
2017/1/6 11:00,16.9,0.3,17.2
2017/1/6 11:30,49.4,0.3,49.6
2017/1/6 12:00,55.2,0.6,55.8
2017/1/6 12:30,74.9,0.4,75.3
2017/1/6 13:00,85.1,0.7,85.8
2017/1/6 13:30,78,1.2,79.2
2017/1/6 14:00,52.9,1.5,54.4
2017/1/6 14:30,34.2,1.8,36
2017/1/6 15:00,25,2.1,27.2
2017/1/6 15:30,36.8,1.5,38.3
2017/1/6 16:00,33.6,2,35.6
2017/1/6 16:30,23.7,2,25.6
2017/1/6 17:00,9.6,2.5,12.1
2017/1/6 17:30,2.1,2.6,4.7
2017/1/6 18:00,0,3.5,3.5
2017/1/6 18:30,0,3.8,3.8
2017/1/6 19:00,0,3.7,3.7
2017/1/6 19:30,0,3.3,3.3
2017/1/6 20:00,0,3,3
2017/1/6 20:30,0,2.8,2.8
2017/1/6 21:00,0,2.1,2.1
2017/1/6 21:30,0,1.8,1.8
2017/1/6 22:00,0,2.5,2.5
2017/1/6 22:30,0,2.7,2.7
2017/1/6 23:00,0,2.5,2.5
2017/1/6 23:30,0,2.4,2.4
2017/1/7 0:00,0,2,2
2017/1/7 0:30,0,1.7,1.7
2017/1/7 1:00,0,2.2,2.2
2017/1/7 1:30,0,2.4,2.4
2017/1/7 2:00,0,2.5,2.5
2017/1/7 2:30,0,2.1,2.1
2017/1/7 3:00,0,1.9,1.9
2017/1/7 3:30,0,1.8,1.8
2017/1/7 4:00,0,1.5,1.5
2017/1/7 4:30,0,1.5,1.5
2017/1/7 5:00,0,1.2,1.2
2017/1/7 5:30,0,1.1,1.1
2017/1/7 6:00,0,1.2,1.2
2017/1/7 6:30,0,1,1
2017/1/7 7:00,0,0.7,0.7
2017/1/7 7:30,5.7,0.5,6.1
2017/1/7 8:00,11.7,0.4,12.1
2017/1/7 8:30,15.5,0.5,16
2017/1/7 9:00,16.5,0.9,17.4
2017/1/7 9:30,24,1.2,25.2
2017/1/7 10:00,29.7,0.8,30.5
2017/1/7 10:30,45.8,0.5,46.3
2017/1/7 11:00,71.1,0.5,71.6
2017/1/7 11:30,47.2,0.6,47.8
2017/1/7 12:00,61.2,0.6,61.8
2017/1/7 12:30,64.3,0.3,64.6
2017/1/7 13:00,54.5,0.2,54.7
2017/1/7 13:30,35.4,0.2,35.7
2017/1/7 14:00,42.3,0.2,42.5
2017/1/7 14:30,37.4,0.1,37.5
2017/1/7 15:00,21.2,0,21.2
2017/1/7 15:30,16.6,0,16.6
2017/1/7 16:00,21.2,0.1,21.3
2017/1/7 16:30,14.7,0.1,14.8
2017/1/7 17:00,10.1,0.1,10.2
2017/1/7 17:30,2.4,0.1,2.5
2017/1/7 18:00,0,0.3,0.3
2017/1/7 18:30,0,0.3,0.3
2017/1/7 19:00,0,0.2,0.2
2017/1/7 19:30,0,0.4,0.4
2017/1/7 20:00,0,0.7,0.7
2017/1/7 20:30,0,0.9,0.9
2017/1/7 21:00,0,0.9,0.9
2017/1/7 21:30,0,0.4,0.4
2017/1/7 22:00,0,0.3,0.3
2017/1/7 22:30,0,0.3,0.3
2017/1/7 23:00,0,0.3,0.3
2017/1/7 23:30,0,0.5,0.5
2017/1/8 0:00,0,0.6,0.6
2017/1/8 0:30,0,0.7,0.7
2017/1/8 1:00,0,0.8,0.8
2017/1/8 1:30,0,1.1,1.1
2017/1/8 2:00,0,1.2,1.2
2017/1/8 2:30,0,1.3,1.3
2017/1/8 3:00,0,1.3,1.3
2017/1/8 3:30,0,1.5,1.5
2017/1/8 4:00,0,1.6,1.6
2017/1/8 4:30,0,2.5,2.5
2017/1/8 5:00,0,4,4
2017/1/8 5:30,0,3.2,3.2
2017/1/8 6:00,0,2.4,2.4
2017/1/8 6:30,0,2.9,2.9
2017/1/8 7:00,0,3.3,3.3
2017/1/8 7:30,4.8,3.3,8.1
2017/1/8 8:00,12.8,3.2,16
2017/1/8 8:30,12,3.5,15.5
2017/1/8 9:00,13.8,3.7,17.5
2017/1/8 9:30,16.3,3.5,19.8
2017/1/8 10:00,20,3.8,23.9
2017/1/8 10:30,37.1,3.2,40.3
2017/1/8 11:00,32.5,2.9,35.4
2017/1/8 11:30,34.8,2.4,37.2
2017/1/8 12:00,50.2,3,53.3
2017/1/8 12:30,57,2.9,59.9
2017/1/8 13:00,48.3,3.1,51.4
2017/1/8 13:30,48,3,51
2017/1/8 14:00,34.3,2.8,37.1
2017/1/8 14:30,45.3,3.1,48.4
2017/1/8 15:00,34.2,2.9,37.1
2017/1/8 15:30,27,3,29.9
2017/1/8 16:00,29,2.4,31.3
2017/1/8 16:30,21.9,2,23.9
2017/1/8 17:00,10,2,12
2017/1/8 17:30,2.8,1.7,4.5
2017/1/8 18:00,0,1.7,1.7
2017/1/8 18:30,0,1.5,1.5
2017/1/8 19:00,0,1.3,1.3
2017/1/8 19:30,0,1.4,1.4
2017/1/8 20:00,0,1.4,1.4
2017/1/8 20:30,0,1.1,1.1
2017/1/8 21:00,0,1.2,1.2
2017/1/8 21:30,0,1.6,1.6
2017/1/8 22:00,0,1.9,1.9
2017/1/8 22:30,0,2.1,2.1
2017/1/8 23:00,0,2,2
2017/1/8 23:30,0,1.7,1.7
2017/1/9 0:00,0,1.9,1.9
2017/1/9 0:30,0,2.4,2.4
2017/1/9 1:00,0,2.3,2.3
2017/1/9 1:30,0,2.5,2.5
2017/1/9 2:00,0,2.8,2.8
2017/1/9 2:30,0,3.2,3.2
2017/1/9 3:00,0,3.3,3.3
2017/1/9 3:30,0,3.5,3.5
2017/1/9 4:00,0,3.6,3.6
2017/1/9 4:30,0,3.8,3.8
2017/1/9 5:00,0,4.1,4.1
2017/1/9 5:30,0,4.6,4.6
2017/1/9 6:00,0,4.5,4.5
2017/1/9 6:30,0,4.7,4.7
2017/1/9 7:00,0,4.6,4.6
2017/1/9 7:30,5.7,4.7,10.4
2017/1/9 8:00,13.4,4.6,18
2017/1/9 8:30,17,4.5,21.5
2017/1/9 9:00,18,4.8,22.8
2017/1/9 9:30,22.4,4.5,27
2017/1/9 10:00,23.6,4.7,28.3
2017/1/9 10:30,17.1,5,22
2017/1/9 11:00,52.7,5,57.7
2017/1/9 11:30,25.6,5,30.6
2017/1/9 12:00,23.8,4.9,28.7
2017/1/9 12:30,24.1,4.9,28.9
2017/1/9 13:00,33,4.5,37.5
2017/1/9 13:30,29.8,4.1,33.9
2017/1/9 14:00,26.7,4.6,31.3
2017/1/9 14:30,32.2,4.3,36.4
2017/1/9 15:00,27.9,3.9,31.8
2017/1/9 15:30,19.1,3.5,22.6
2017/1/9 16:00,12.7,3.5,16.2
2017/1/9 16:30,13.4,3.2,16.6
2017/1/9 17:00,7.7,3.1,10.8
2017/1/9 17:30,3.1,2.7,5.8
2017/1/9 18:00,0,2,2
2017/1/9 18:30,0,1.5,1.5
2017/1/9 19:00,0,1.2,1.2
2017/1/9 19:30,0,1,1
2017/1/9 20:00,0,1,1
2017/1/9 20:30,0,1.2,1.2
2017/1/9 21:00,0,1.3,1.3
2017/1/9 21:30,0,1.8,1.8
2017/1/9 22:00,0,2,2
2017/1/9 22:30,0,2,2
2017/1/9 23:00,0,1.9,1.9
2017/1/9 23:30,0,2,2
2017/1/10 0:00,0,1.7,1.7
2017/1/10 0:30,0,1.5,1.5
2017/1/10 1:00,0,1.4,1.4
2017/1/10 1:30,0,1.5,1.5
2017/1/10 2:00,0,1.1,1.1
2017/1/10 2:30,0,1,1
2017/1/10 3:00,0,1.1,1.1
2017/1/10 3:30,0,1,1
2017/1/10 4:00,0,0.9,0.9
2017/1/10 4:30,0,0.9,0.9
2017/1/10 5:00,0,0.9,0.9
2017/1/10 5:30,0,1,1
2017/1/10 6:00,0,0.9,0.9
2017/1/10 6:30,0,1,1
2017/1/10 7:00,0,1.3,1.3
2017/1/10 7:30,5.6,1.5,7.1
2017/1/10 8:00,11.3,1.5,12.8
2017/1/10 8:30,8.9,1.2,10.2
2017/1/10 9:00,12.5,1.1,13.6
2017/1/10 9:30,17.1,0.9,18
2017/1/10 10:00,12.7,0.9,13.6
2017/1/10 10:30,11.1,0.9,12
2017/1/10 11:00,15.9,0.8,16.7
2017/1/10 11:30,9.3,1,10.3
2017/1/10 12:00,13,0.9,13.9
2017/1/10 12:30,14,1,15
2017/1/10 13:00,19,1.1,20.1
2017/1/10 13:30,12.2,1.2,13.4
2017/1/10 14:00,26,1.1,27.2
2017/1/10 14:30,45.3,1.2,46.5
2017/1/10 15:00,35.9,1.4,37.3
2017/1/10 15:30,31.2,1.6,32.8
2017/1/10 16:00,22.6,1.5,24.1
2017/1/10 16:30,19.5,1.6,21
2017/1/10 17:00,11.9,1.7,13.6
2017/1/10 17:30,3.3,2,5.3
2017/1/10 18:00,0,1.8,1.8
2017/1/10 18:30,0,1.7,1.7
2017/1/10 19:00,0,1.6,1.6
2017/1/10 19:30,0,1.7,1.7
2017/1/10 20:00,0,1.5,1.5
2017/1/10 20:30,0,1.3,1.3
2017/1/10 21:00,0,1.4,1.4
2017/1/10 21:30,0,1.4,1.4
2017/1/10 22:00,0,1.2,1.2
2017/1/10 22:30,0,1,1
2017/1/10 23:00,0,0.9,0.9
2017/1/10 23:30,0,1,1
2017/1/11 0:00,0,0.8,0.8
2017/1/11 0:30,0,0.7,0.7
2017/1/11 1:00,0,0.8,0.8
2017/1/11 1:30,0,0.8,0.8
2017/1/11 2:00,0,1.1,1.1
2017/1/11 2:30,0,1.1,1.1
2017/1/11 3:00,0,1.1,1.1
2017/1/11 3:30,0,1.2,1.2
2017/1/11 4:00,0,1.2,1.2
2017/1/11 4:30,0,1.2,1.2
2017/1/11 5:00,0,1.2,1.2
2017/1/11 5:30,0,1,1
2017/1/11 6:00,0,0.9,0.9
2017/1/11 6:30,0,0.8,0.8
2017/1/11 7:00,0,1,1
2017/1/11 7:30,5.1,1,6.1
2017/1/11 8:00,11,1,12
2017/1/11 8:30,18.6,1,19.6
2017/1/11 9:00,33.2,0.9,34.1
2017/1/11 9:30,30.1,1.1,31.2
2017/1/11 10:00,24.1,1.1,25.2
2017/1/11 10:30,16,1,16.9
2017/1/11 11:00,33.4,1.2,34.6
2017/1/11 11:30,69.8,1.1,70.9
2017/1/11 12:00,46.5,1.3,47.8
2017/1/11 12:30,39.5,1.6,41.1
2017/1/11 13:00,29.7,1.4,31.1
2017/1/11 13:30,19.4,1.2,20.6
2017/1/11 14:00,32,1.5,33.5
2017/1/11 14:30,45.8,1.3,47.1
2017/1/11 15:00,37.7,1.4,39.1
2017/1/11 15:30,32.2,1.5,33.6
2017/1/11 16:00,18.3,1.8,20.2
2017/1/11 16:30,8.8,1.8,10.5
2017/1/11 17:00,9.6,1.8,11.4
2017/1/11 17:30,3.5,1.7,5.2
2017/1/11 18:00,0,1.4,1.4
2017/1/11 18:30,0,1.2,1.2
2017/1/11 19:00,0,1,1
2017/1/11 19:30,0,1,1
2017/1/11 20:00,0,1.1,1.1
2017/1/11 20:30,0,1.2,1.2
2017/1/11 21:00,0,1.1,1.1
2017/1/11 21:30,0,0.9,0.9
2017/1/11 22:00,0,0.7,0.7
2017/1/11 22:30,0,0.8,0.8
2017/1/11 23:00,0,1.2,1.2
2017/1/11 23:30,0,0.4,0.4
2017/1/12 0:00,0,0.5,0.5
2017/1/12 0:30,0,0.4,0.4
2017/1/12 1:00,0,0.6,0.6
2017/1/12 1:30,0,0.5,0.5
2017/1/12 2:00,0,0.4,0.4
2017/1/12 2:30,0,0.4,0.4
2017/1/12 3:00,0,0.3,0.3
2017/1/12 3:30,0,0.2,0.2
2017/1/12 4:00,0,0.2,0.2
2017/1/12 4:30,0,0.3,0.3
2017/1/12 5:00,0,0.3,0.3
2017/1/12 5:30,0,0.5,0.5
2017/1/12 6:00,0,0.7,0.7
2017/1/12 6:30,0,0.8,0.8
2017/1/12 7:00,0,0.8,0.8
2017/1/12 7:30,4.9,0.7,5.6
2017/1/12 8:00,13.5,0.7,14.2
2017/1/12 8:30,16.9,0.9,17.8
2017/1/12 9:00,15.4,1.2,16.6
2017/1/12 9:30,23.3,1.1,24.5
2017/1/12 10:00,26.7,0.9,27.6
2017/1/12 10:30,34.2,0.6,34.7
2017/1/12 11:00,18.2,0.4,18.6
2017/1/12 11:30,10.6,0.4,10.9
2017/1/12 12:00,12,0.2,12.2
2017/1/12 12:30,16,0.1,16.1
2017/1/12 13:00,25.7,0.2,25.9
2017/1/12 13:30,32,0.1,32.1
2017/1/12 14:00,17.5,0.1,17.6
2017/1/12 14:30,16.4,0.1,16.5
2017/1/12 15:00,18.3,0.1,18.4
2017/1/12 15:30,17.9,0.2,18.1
2017/1/12 16:00,11.3,0.2,11.4
2017/1/12 16:30,10.4,0.1,10.5
2017/1/12 17:00,8.7,0.1,8.8
2017/1/12 17:30,3.6,0.1,3.7
2017/1/12 18:00,0,0.3,0.3
2017/1/12 18:30,0,0.3,0.3
2017/1/12 19:00,0,0.4,0.4
2017/1/12 19:30,0,0.6,0.6
2017/1/12 20:00,0,0.5,0.5
2017/1/12 20:30,0,0.6,0.6
2017/1/12 21:00,0,0.8,0.8
2017/1/12 21:30,0,0.8,0.8
2017/1/12 22:00,0,1.1,1.1
2017/1/12 22:30,0,1.1,1.1
2017/1/12 23:00,0,1.2,1.2
2017/1/12 23:30,0,1,1
2017/1/13 0:00,0,1.3,1.3
2017/1/13 0:30,0,2.2,2.2
2017/1/13 1:00,0,2.5,2.5
2017/1/13 1:30,0,2.7,2.7
2017/1/13 2:00,0,2.6,2.6
2017/1/13 2:30,0,2.8,2.8
2017/1/13 3:00,0,3.6,3.6
2017/1/13 3:30,0,4.6,4.6
2017/1/13 4:00,0,4.7,4.7
2017/1/13 4:30,0,4.5,4.5
2017/1/13 5:00,0,5.3,5.3
2017/1/13 5:30,0,5.4,5.4
2017/1/13 6:00,0,5.1,5.1
2017/1/13 6:30,0,4.8,4.8
2017/1/13 7:00,0,4.3,4.3
2017/1/13 7:30,5.3,4.1,9.5
2017/1/13 8:00,10.4,4.6,15
2017/1/13 8:30,13.8,4.5,18.3
2017/1/13 9:00,11.2,3.9,15.1
2017/1/13 9:30,12.8,4.8,17.7
2017/1/13 10:00,8.4,4.8,13.2
2017/1/13 10:30,8.9,4.3,13.2
2017/1/13 11:00,10,3.3,13.3
2017/1/13 11:30,11.2,3.3,14.4
2017/1/13 12:00,9.5,3.2,12.7
2017/1/13 12:30,11.2,2.4,13.5
2017/1/13 13:00,10.8,1.9,12.7
2017/1/13 13:30,9,3.1,12.1
2017/1/13 14:00,6.3,2.5,8.9
2017/1/13 14:30,6.1,1.6,7.7
2017/1/13 15:00,6.1,2.1,8.1
2017/1/13 15:30,5.6,2.5,8.1
2017/1/13 16:00,4.6,2.5,7
2017/1/13 16:30,7.9,2.3,10.2
2017/1/13 17:00,8.2,3.5,11.7
2017/1/13 17:30,3.9,3,6.9
2017/1/13 18:00,0,2.5,2.5
2017/1/13 18:30,0,2.9,2.9
2017/1/13 19:00,0,3.2,3.2
2017/1/13 19:30,0,3.2,3.2
2017/1/13 20:00,0,3.4,3.4
2017/1/13 20:30,0,3.4,3.4
2017/1/13 21:00,0,3.1,3.1
2017/1/13 21:30,0,2.8,2.8
2017/1/13 22:00,0,2.8,2.8
2017/1/13 22:30,0,3.2,3.2
2017/1/13 23:00,0,3.2,3.2
2017/1/13 23:30,0,3.3,3.3
2017/1/14 0:00,0,3.2,3.2
2017/1/14 0:30,0,3.3,3.3
2017/1/14 1:00,0,3.8,3.8
2017/1/14 1:30,0,3.8,3.8
2017/1/14 2:00,0,3.8,3.8
2017/1/14 2:30,0,3.8,3.8
2017/1/14 3:00,0,4.3,4.3
2017/1/14 3:30,0,4.4,4.4
2017/1/14 4:00,0,4.5,4.5
2017/1/14 4:30,0,4.4,4.4
2017/1/14 5:00,0,3.8,3.8
2017/1/14 5:30,0,3.5,3.5
2017/1/14 6:00,0,4.4,4.4
2017/1/14 6:30,0,3.8,3.8
2017/1/14 7:00,0,3.2,3.2
2017/1/14 7:30,5.7,4.5,10.2
2017/1/14 8:00,13.6,5,18.6
2017/1/14 8:30,15.3,5,20.3
2017/1/14 9:00,5.9,4.5,10.5
2017/1/14 9:30,8.9,4.7,13.6
2017/1/14 10:00,16.9,4.6,21.6
2017/1/14 10:30,25,4.6,29.7
2017/1/14 11:00,36.8,3.9,40.7
2017/1/14 11:30,44.6,5.1,49.7
2017/1/14 12:00,37.6,5.3,42.9
2017/1/14 12:30,44.7,5,49.7
2017/1/14 13:00,42.1,4.6,46.8
2017/1/14 13:30,20.5,4.5,25
2017/1/14 14:00,10.5,4,14.5
2017/1/14 14:30,14.4,4.2,18.6
2017/1/14 15:00,14.3,5.1,19.5
2017/1/14 15:30,12.6,4.9,17.5
2017/1/14 16:00,16.9,4.4,21.3
2017/1/14 16:30,18.9,5.2,24.1
2017/1/14 17:00,13.2,5.1,18.3
2017/1/14 17:30,4.4,4.3,8.7
2017/1/14 18:00,0,4.5,4.5
2017/1/14 18:30,0,5,5
2017/1/14 19:00,0,3.8,3.8
2017/1/14 19:30,0,4,4
2017/1/14 20:00,0,3.6,3.6
2017/1/14 20:30,0,4.4,4.4
2017/1/14 21:00,0,4.6,4.6
2017/1/14 21:30,0,4.4,4.4
2017/1/14 22:00,0,3.7,3.7
2017/1/14 22:30,0,3.9,3.9
2017/1/14 23:00,0,4.3,4.3
2017/1/14 23:30,0,3.7,3.7
2017/1/15 0:00,0,3.5,3.5
2017/1/15 0:30,0,3.6,3.6
2017/1/15 1:00,0,3.8,3.8
2017/1/15 1:30,0,3.9,3.9
2017/1/15 2:00,0,3.5,3.5
2017/1/15 2:30,0,3.3,3.3
2017/1/15 3:00,0,3.1,3.1
2017/1/15 3:30,0,3.6,3.6
2017/1/15 4:00,0,3.5,3.5
2017/1/15 4:30,0,3.2,3.2
2017/1/15 5:00,0,3.9,3.9
2017/1/15 5:30,0,4.4,4.4
2017/1/15 6:00,0,4.3,4.3
2017/1/15 6:30,0,4.5,4.5
2017/1/15 7:00,0,4.8,4.8
2017/1/15 7:30,5,4.5,9.6
2017/1/15 8:00,13,4.7,17.7
2017/1/15 8:30,21.4,5,26.4
2017/1/15 9:00,25.7,5.3,31
2017/1/15 9:30,22.8,4.6,27.4
2017/1/15 10:00,29.9,4.5,34.4
2017/1/15 10:30,60.3,4.2,64.5
2017/1/15 11:00,71.2,4.2,75.3
2017/1/15 11:30,50.8,4.2,55
2017/1/15 12:00,41.9,4.4,46.3
2017/1/15 12:30,51.2,4.5,55.7
2017/1/15 13:00,42.1,4.4,46.5
2017/1/15 13:30,47.6,4.4,52
2017/1/15 14:00,18.9,4.6,23.5
2017/1/15 14:30,23.6,4.2,27.8
2017/1/15 15:00,18.6,4.7,23.4
2017/1/15 15:30,21.1,4.5,25.7
2017/1/15 16:00,7.2,3.6,10.8
2017/1/15 16:30,10.1,3.8,14
2017/1/15 17:00,8.9,3.5,12.4
2017/1/15 17:30,4.7,2.8,7.5
2017/1/15 18:00,0,3.6,3.6
2017/1/15 18:30,0,3.2,3.2
2017/1/15 19:00,0,3.1,3.1
2017/1/15 19:30,0,3.2,3.2
2017/1/15 20:00,0,3.1,3.1
2017/1/15 20:30,0,3.2,3.2
2017/1/15 21:00,0,3.6,3.6
2017/1/15 21:30,0,2.7,2.7
2017/1/15 22:00,0,3.3,3.3
2017/1/15 22:30,0,3.8,3.8
2017/1/15 23:00,0,3.7,3.7
2017/1/15 23:30,0,3.1,3.1
2017/1/16 0:00,0,3.3,3.3
2017/1/16 0:30,0,3,3
2017/1/16 1:00,0,2.7,2.7
2017/1/16 1:30,0,3.1,3.1
2017/1/16 2:00,0,3.4,3.4
2017/1/16 2:30,0,2.7,2.7
2017/1/16 3:00,0,3.1,3.1
2017/1/16 3:30,0,3.3,3.3
2017/1/16 4:00,0,2.8,2.8
2017/1/16 4:30,0,2.8,2.8
2017/1/16 5:00,0,3.3,3.3
2017/1/16 5:30,0,2.7,2.7
2017/1/16 6:00,0,2.6,2.6
2017/1/16 6:30,0,3.3,3.3
2017/1/16 7:00,0,3.3,3.3
2017/1/16 7:30,5.8,3.1,8.9
2017/1/16 8:00,13.9,2.8,16.7
2017/1/16 8:30,17.2,2.6,19.8
2017/1/16 9:00,12.6,2.6,15.3
2017/1/16 9:30,19.5,1.7,21.2
2017/1/16 10:00,28.1,1.3,29.3
2017/1/16 10:30,37.7,1.2,38.9
2017/1/16 11:00,62.6,1.2,63.8
2017/1/16 11:30,69.6,0.7,70.3
2017/1/16 12:00,60.3,0.8,61
2017/1/16 12:30,27.4,1.1,28.5
2017/1/16 13:00,27.1,1.4,28.5
2017/1/16 13:30,28,1.2,29.2
2017/1/16 14:00,31.6,1.8,33.4
2017/1/16 14:30,20.8,2.2,23.1
2017/1/16 15:00,16.6,1.7,18.2
2017/1/16 15:30,14.8,1.7,16.5
2017/1/16 16:00,11.9,2.9,14.9
2017/1/16 16:30,19.4,2.8,22.2
2017/1/16 17:00,10.4,3.5,13.8
2017/1/16 17:30,5,3.1,8.2
2017/1/16 18:00,0,2.5,2.5
2017/1/16 18:30,0,2.2,2.2
2017/1/16 19:00,0,2.1,2.1
2017/1/16 19:30,0,1.5,1.5
2017/1/16 20:00,0,1.5,1.5
2017/1/16 20:30,0,2.4,2.4
2017/1/16 21:00,0,1.5,1.5
2017/1/16 21:30,0,1.5,1.5
2017/1/16 22:00,0,2,2
2017/1/16 22:30,0,1.6,1.6
2017/1/16 23:00,0,1.8,1.8
2017/1/16 23:30,0,1.2,1.2
2017/1/17 0:00,0,1.4,1.4
2017/1/17 0:30,0,1.5,1.5
2017/1/17 1:00,0,1.2,1.2
2017/1/17 1:30,0,1.3,1.3
2017/1/17 2:00,0,1,1
2017/1/17 2:30,0,1,1
2017/1/17 3:00,0,1.1,1.1
2017/1/17 3:30,0,0.8,0.8
2017/1/17 4:00,0,1,1
2017/1/17 4:30,0,1,1
2017/1/17 5:00,0,0.8,0.8
2017/1/17 5:30,0,1,1
2017/1/17 6:00,0,0.7,0.7
2017/1/17 6:30,0,0.6,0.6
2017/1/17 7:00,0,0.4,0.4
2017/1/17 7:30,6.1,0.5,6.5
2017/1/17 8:00,19,0.7,19.7
2017/1/17 8:30,28.4,0.9,29.2
2017/1/17 9:00,38.9,1.5,40.3
2017/1/17 9:30,51.5,1.3,52.8
2017/1/17 10:00,61,0.8,61.8
2017/1/17 10:30,31.1,0.6,31.8
2017/1/17 11:00,63.4,0.4,63.9
2017/1/17 11:30,68.8,0.2,69
2017/1/17 12:00,39.1,0.1,39.2
2017/1/17 12:30,32.3,0.1,32.4
2017/1/17 13:00,34.7,0.1,34.8
2017/1/17 13:30,73.7,0.2,73.8
2017/1/17 14:00,72.9,0.3,73.2
2017/1/17 14:30,49.1,0.2,49.3
2017/1/17 15:00,46.2,0.2,46.3
2017/1/17 15:30,38.3,0.1,38.4
2017/1/17 16:00,26.5,0.2,26.7
2017/1/17 16:30,22,0.2,22.2
2017/1/17 17:00,15.9,0.2,16.1
2017/1/17 17:30,5.2,0.2,5.4
2017/1/17 18:00,0,0.3,0.3
2017/1/17 18:30,0,0.2,0.2
2017/1/17 19:00,0,0.3,0.3
2017/1/17 19:30,0,0.5,0.5
2017/1/17 20:00,0,0.6,0.6
2017/1/17 20:30,0,0.9,0.9
2017/1/17 21:00,0,1,1
2017/1/17 21:30,0,0.9,0.9
2017/1/17 22:00,0,0.8,0.8
2017/1/17 22:30,0,0.6,0.6
2017/1/17 23:00,0,0.8,0.8
2017/1/17 23:30,0,0.9,0.9
2017/1/18 0:00,0,0.7,0.7
2017/1/18 0:30,0,0.9,0.9
2017/1/18 1:00,0,0.7,0.7
2017/1/18 1:30,0,0.5,0.5
2017/1/18 2:00,0,0.7,0.7
2017/1/18 2:30,0,1,1
2017/1/18 3:00,0,1,1
2017/1/18 3:30,0,0.9,0.9
2017/1/18 4:00,0,0.9,0.9
2017/1/18 4:30,0,0.8,0.8
2017/1/18 5:00,0,0.8,0.8
2017/1/18 5:30,0,1.1,1.1
2017/1/18 6:00,0,1,1
2017/1/18 6:30,0,0.8,0.8
2017/1/18 7:00,0,0.7,0.7
2017/1/18 7:30,5.2,1.3,6.5
2017/1/18 8:00,10.9,1.7,12.6
2017/1/18 8:30,11,1.5,12.6
2017/1/18 9:00,9,1.6,10.6
2017/1/18 9:30,16.5,1.8,18.3
2017/1/18 10:00,24.4,1.4,25.8
2017/1/18 10:30,35.4,1.5,36.9
2017/1/18 11:00,56.6,1.7,58.3
2017/1/18 11:30,69.1,2.1,71.3
2017/1/18 12:00,50.9,2.1,53
2017/1/18 12:30,31.1,2.3,33.4
2017/1/18 13:00,24.1,2.2,26.3
2017/1/18 13:30,17.4,1.9,19.3
2017/1/18 14:00,17,1.7,18.7
2017/1/18 14:30,11.7,1.8,13.5
2017/1/18 15:00,12.4,2.4,14.8
2017/1/18 15:30,4.6,2,6.6
2017/1/18 16:00,6.7,2.1,8.8
2017/1/18 16:30,7.7,2.5,10.2
2017/1/18 17:00,8.7,2.5,11.2
2017/1/18 17:30,3.6,2.1,5.8
2017/1/18 18:00,0,2.3,2.3
2017/1/18 18:30,0,2.9,2.9
2017/1/18 19:00,0,2.6,2.6
2017/1/18 19:30,0,3.3,3.3
2017/1/18 20:00,0,2.9,2.9
2017/1/18 20:30,0,2.9,2.9
2017/1/18 21:00,0,3,3
2017/1/18 21:30,0,3,3
2017/1/18 22:00,0,3,3
2017/1/18 22:30,0,2.6,2.6
2017/1/18 23:00,0,3,3
2017/1/18 23:30,0,3.1,3.1
2017/1/19 0:00,0,3.5,3.5
2017/1/19 0:30,0,2.3,2.3
2017/1/19 1:00,0,2.4,2.4
2017/1/19 1:30,0,2,2
2017/1/19 2:00,0,2.3,2.3
2017/1/19 2:30,0,1.6,1.6
2017/1/19 3:00,0,1.1,1.1
2017/1/19 3:30,0,0.6,0.6
2017/1/19 4:00,0,0.4,0.4
2017/1/19 4:30,0,0.2,0.2
2017/1/19 5:00,0,0.1,0.1
2017/1/19 5:30,0,0.1,0.1
2017/1/19 6:00,0,0.1,0.1
2017/1/19 6:30,0,0,0
2017/1/19 7:00,0,0,0
2017/1/19 7:30,5.8,0,5.8
2017/1/19 8:00,14.8,0,14.8
2017/1/19 8:30,28.3,0,28.3
2017/1/19 9:00,38.8,0,38.9
2017/1/19 9:30,42.7,0,42.7